N8QQ Weather Reports


Display with metric or nautical units.
time (UTC)temp
F
wind
direction
speed
MPH
gust
MPH
rain 1hr
in
rain 24hr
in
rain mn
in
humidity
%
barometer
mb
20260503001023 48 151 2.0 4.0 0.00 0.00 0.00 52 1012.5
20260503000026 49 143 3.0 5.0 0.00 0.00 0.00 51 1012.5
20260502235023 50 287 3.0 6.0 0.00 0.00 0.00 49 1012.3
20260502234020 50 76 4.0 6.0 0.00 0.00 0.00 49 1012.3
20260502233018 50 94 3.0 5.0 0.00 0.00 0.00 48 1012.2
20260502232015 51 335 3.0 5.0 0.00 0.00 0.00 48 1012.2
20260502231024 51 346 2.0 4.0 0.00 0.00 0.00 49 1012.3
20260502230027 51 235 2.0 5.0 0.00 0.00 0.00 47 1012.3
20260502225030 52 246 3.0 6.0 0.00 0.00 0.00 46 1012.1
20260502224031 52 71 4.0 5.0 0.00 0.00 0.00 45 1012.0
20260502223018 54 187 3.0 5.0 0.00 0.00 0.00 44 1012.0
20260502222100 53 140 2.0 5.0 0.00 0.00 0.00 44 1012.0
20260502221023 54 77 3.0 6.0 0.00 0.00 0.00 43 1012.0
20260502220026 53 205 3.0 5.0 0.00 0.00 0.00 43 1012.0
20260502215029 53 227 3.0 8.0 0.00 0.00 0.00 43 1012.0
20260502214032 56 225 5.0 9.0 0.00 0.00 0.00 41 1011.7
20260502213017 55 203 4.0 7.0 0.00 0.00 0.00 41 1011.6
20260502212041 54 218 3.0 6.0 0.00 0.00 0.00 42 1011.7
20260502211043 53 94 3.0 5.0 0.00 0.00 0.00 43 1011.7
20260502210046 54 214 3.0 5.0 0.00 0.00 0.00 42 1011.8
20260502205029 56 170 3.0 5.0 0.00 0.00 0.00 41 1011.8
20260502204046 54 194 4.0 8.0 0.00 0.00 0.00 42 1011.7
20260502203017 54 169 3.0 6.0 0.00 0.00 0.00 43 1011.9
20260502202042 54 141 3.0 7.0 0.00 0.00 0.00 43 1011.9
20260502201018 55 189 2.0 4.0 0.00 0.00 0.00 41 1012.0
20260502200047 55 186 2.0 4.0 0.00 0.00 0.00 42 1012.0
20260502195030 58 339 3.0 6.0 0.00 0.00 0.00 39 1012.0
20260502194052 57 108 3.0 5.0 0.00 0.00 0.00 42 1012.1
20260502193017 57 142 4.0 6.0 0.00 0.00 0.00 41 1012.2
20260502192020 58 235 4.0 8.0 0.00 0.00 0.00 40 1012.2
20260502191023 55 187 4.0 8.0 0.00 0.00 0.00 41 1012.3
20260502190026 57 215 4.0 6.0 0.00 0.00 0.00 42 1012.3
20260502185029 56 260 3.0 6.0 0.00 0.00 0.00 43 1012.4
20260502184015 56 191 2.0 4.0 0.00 0.00 0.00 41 1012.4
20260502183018 56 141 4.0 8.0 0.00 0.00 0.00 44 1012.5
20260502182021 57 176 3.0 7.0 0.00 0.00 0.00 42 1012.5
20260502181024 56 204 3.0 9.0 0.00 0.00 0.00 43 1012.5
20260502164016 57 161 4.0 6.0 0.00 0.00 0.00 45 1013.2
20260502163031 55 84 3.0 6.0 0.00 0.00 0.00 47 1013.3
20260502162016 55 207 3.0 9.0 0.00 0.00 0.00 47 1013.3
20260502161039 56 226 3.0 6.0 0.00 0.00 0.00 47 1013.3
20260502152017 51 182 2.0 4.0 0.00 0.00 0.00 53 1013.5
20260502151041 51 29 2.0 4.0 0.00 0.00 0.00 53 1013.5
20260502123029 42 73 2.0 4.0 0.00 0.00 0.00 79 1013.0
20260502122032 40 63 2.0 4.0 0.00 0.00 0.00 83 1013.0
20260502121018 39 18 1.0 2.0 0.00 0.00 0.00 89 1013.1
20260502115024 36 67 0.0 1.0 0.00 0.00 0.00 97 1013.0
20260502114027 35 167 0.0 1.0 0.00 0.00 0.00 97 1012.8
20260502113032 35 0.0 0.0 0.00 0.00 0.00 97 1012.6
20260502112035 34 0.0 1.0 0.00 0.00 0.00 98 1012.5
20260502111019 34 0.0 0.0 0.00 0.00 0.00 98 1012.4
20260502110022 35 0.0 0.0 0.00 0.00 0.00 98 1012.4
20260502105025 35 0.0 0.0 0.00 0.00 0.00 99 1012.5
20260502104029 35 0.0 0.0 0.00 0.00 0.00 98 1012.7
20260502103031 34 0.0 0.0 0.00 0.00 0.00 96 1012.6
20260502102036 34 0.0 0.0 0.00 0.00 0.00 96 1012.5
20260502101020 35 0.0 0.0 0.00 0.00 0.00 98 1012.5
20260502091041 36 0.0 0.0 0.00 0.00 0.00 92 1012.5
20260502071021 38 0.0 0.0 0.00 0.00 0.00 92 1012.3
20260502070025 39 0.0 0.0 0.00 0.00 0.00 91 1012.3
20260502065029 39 0.0 0.0 0.00 0.00 0.00 93 1012.2
20260502064025 38 45 0.0 1.0 0.00 0.00 0.00 95 1012.6
20260502063016 38 0.0 0.0 0.00 0.00 0.00 95 1012.8
20260502062040 38 135 0.0 2.0 0.00 0.00 0.00 94 1012.8
20260502061017 38 0.0 0.0 0.00 0.00 0.00 94 1012.8
20260502060047 37 0.0 0.0 0.00 0.00 0.00 94 1012.9
20260502055029 37 0.0 0.0 0.00 0.00 0.00 93 1013.0
20260502054034 37 0.0 0.0 0.00 0.00 0.00 93 1012.8
20260502053017 37 0.0 0.0 0.00 0.00 0.00 93 1012.7
20260502052020 38 0.0 0.0 0.00 0.00 0.00 94 1012.7
20260502051023 38 0.0 0.0 0.00 0.00 0.00 94 1012.7
20260502050026 38 0.0 0.0 0.00 0.00 0.00 94 1012.7
20260502045050 37 0.0 0.0 0.00 0.00 0.00 89 1012.7
20260502044015 38 0.0 0.0 0.00 0.00 0.00 88 1012.8
20260502043017 38 0.0 0.0 0.00 0.00 0.00 88 1012.9
20260502042020 38 0.0 0.0 0.00 0.00 0.00 88 1012.9
20260502041024 39 0.0 0.0 0.00 0.00 0.00 88 1012.8
20260502040028 39 0.0 0.0 0.00 0.00 0.00 87 1012.8
20260502035030 40 0.0 0.0 0.00 0.00 0.00 87 1012.9
20260502034033 40 0.0 0.0 0.00 0.00 0.00 85 1013.0
20260502033018 40 0.0 0.0 0.00 0.00 0.00 84 1013.0
20260502032021 41 0.0 0.0 0.00 0.00 0.00 83 1013.0
20260502031024 41 0.0 0.0 0.00 0.00 0.00 83 1012.9
20260502030021 42 0.0 0.0 0.00 0.00 0.00 83 1012.9
20260502025019 42 0.0 0.0 0.00 0.00 0.00 83 1012.7
20260502024016 42 0.0 0.0 0.00 0.00 0.00 82 1012.6
20260502023019 42 0.0 0.0 0.00 0.00 0.00 82 1012.5
20260502022023 42 0.0 0.0 0.00 0.00 0.00 82 1012.4
20260502021026 43 0.0 0.0 0.00 0.00 0.00 80 1012.2
20260502020029 43 0.0 0.0 0.00 0.00 0.00 76 1012.1
20260502015032 44 0.0 0.0 0.00 0.00 0.00 75 1012.0
20260502014018 44 0.0 0.0 0.00 0.00 0.00 74 1012.0
20260502013021 45 0.0 0.0 0.00 0.00 0.00 72 1011.8
20260502012043 46 0.0 0.0 0.00 0.00 0.00 68 1011.6
20260502011026 46 0.0 0.0 0.00 0.00 0.00 67 1011.4
20260502010034 47 202 0.0 1.0 0.00 0.00 0.00 66 1011.2
20260502005037 48 175 0.0 1.0 0.00 0.00 0.00 65 1011.1
20260502004017 49 96 1.0 2.0 0.00 0.00 0.00 63 1010.7
20260502003040 49 172 0.0 2.0 0.00 0.00 0.00 61 1010.4
20260502002023 50 147 2.0 3.0 0.00 0.00 0.00 60 1010.4